Home   Weather   Toronto   Past weeks

Flag for Canada Past Weather in Toronto, Ontario, Canada — Yesterday and Last 2 Weeks

Now
46 °F

Scattered clouds.


Feels Like: 41 °F
Forecast: 35 / 45 °F
Wind: 13 mph from West

Location: Toronto Pearson International Airport

Current Time: Feb 27, 2017 at 3:31:20 pm

Latest Report: Feb 27, 2017 at 3:00 pm


Visibility: 15 mi

Pressure: 30.20 "Hg

Humidity: 40%

Dew Point: 23 °F

Location of TorontoLocation

Past Weather in Toronto — Graph

°F

Toronto Temperature Yesterday

Maximum temperature yesterday: 37 °F (at 4:00 pm)
Minimum temperature yesterday: 25 °F (at 3:00 am)
Average temperature yesterday: 30 °F

High & Low Weather Summary for the Past Weeks

 TemperatureHumidityPressure
High63 °F (Feb 23, 12:00 pm)100% (Feb 12, 6:00 pm)30.40 "Hg (Feb 12, 6:00 pm)
Low14 °F (Feb 16, 7:00 am)41% (Feb 26, 4:00 pm)29.43 "Hg (Feb 25, 7:22 am)
Average36 °F75%29.83 "Hg
* Reported Feb 12 2:00 pm — Feb 27 2:00 pm, Toronto, Weather by CustomWeather, © 2017

Note: Actual official high and low records may vary slightly from our data, if they occured in-between our weather recording intervals... More about our weather records

Advertising

Toronto Weather History for the Previous 24 Hours

Scroll right to see more
 ConditionsComfort  
Time TempWeatherWind HumidityBarometerVisibility
2:00 pm
Mon, Feb 27
46 °FScattered clouds.18 mph46%30.20 "Hg15 mi
1:00 pm46 °FScattered clouds.22 mph43%30.21 "Hg15 mi
12:00 pm46 °FScattered clouds.14 mph50%30.23 "Hg15 mi
11:00 am43 °FScattered clouds.16 mph53%30.22 "Hg15 mi
10:00 am41 °FPassing clouds.18 mph57%30.20 "Hg15 mi
9:00 am39 °FScattered clouds.16 mph56%30.19 "Hg15 mi
8:00 am37 °FPassing clouds.10 mph56%30.17 "Hg15 mi
7:00 am34 °FPassing clouds.9 mph65%30.16 "Hg15 mi
6:00 am36 °FPassing clouds.10 mph60%30.12 "Hg15 mi
5:00 am36 °FPassing clouds.12 mph56%30.09 "Hg15 mi
4:00 am37 °FPassing clouds.15 mph52%30.07 "Hg15 mi
3:00 am37 °FPassing clouds.16 mph52%30.06 "Hg15 mi
2:00 am37 °FPassing clouds.16 mph52%30.04 "Hg15 mi
1:02 am36 °FPassing clouds.10 mph56%30.04 "Hg15 mi
12:00 am36 °FPassing clouds.12 mph56%30.03 "Hg15 mi
11:00 pm
Sun, Feb 26
36 °FPartly cloudy.16 mph56%30.03 "Hg15 mi
10:00 pm36 °FPassing clouds.17 mph56%30.03 "Hg15 mi
9:00 pm34 °FMostly cloudy.14 mph56%30.03 "Hg15 mi
8:00 pm32 °FPassing clouds.14 mph55%30.03 "Hg15 mi
7:00 pm32 °FMostly cloudy.21 mph51%30.02 "Hg15 mi
6:00 pm34 °FPartly sunny.16 mph51%30.03 "Hg15 mi
5:00 pm34 °FPartly sunny.15 mph51%30.01 "Hg15 mi
4:46 pm36 °FPassing clouds.17 mph48%30.02 "Hg15 mi
4:00 pm37 °FScattered clouds.13 mph41%30.01 "Hg15 mi
3:00 pm36 °FPartly sunny.16 mph44%30.03 "Hg15 mi
Weather by CustomWeather, © 2017

See weather overviewHow to use our weather pages